CZ-6A DEB, 56660

Orbit data source: Space-Track

CZ-6A DEB, 56660 is space debris in SSO originally from a launch on Fri, 11 Nov 2022 UTC launched from the Taiyaun Space Center, China (TSC). Debris objects in space refer to the collection of defunct objects orbiting the Earth. Examples of debris include non-operational satellites, rocket bodies, and fragments generated from explosions, collisions, or faulty payload assembly.

Loading next visibility...
Identifier
56660, 2022-151AGL
Orbit
SSO
Country
Flag of CNCN / PRC
Related business
Manufacturer
SAST
Mission
Spacecraft
Bus & Motor
Unknown
Mass
Unknown
Launch date (UTC)
2022-11-11 (3 years ago)
Launch vehicle
Unknown
Launch site
Taiyaun Space Center, China (TSC)
Object type
Payload
Rocket body
Debris
Shape & HBR
Unknown shape, 0.1 m
Radar Cross Section
Small (<0.1 m²)

Expand to show TLE details & history
Last TLE update: 3 days ago

TLE from 3 days ago
0 CZ-6A DEB
1 56660U 22151AGL 25348.29397199  .00005880  00000-0  19357-2 0  9993
2 56660  98.6772   4.8173 0103669 279.4047  79.5430 14.35542427137854
Epoch: 2025-12-14T07:03Z
TLE epoch observation values (Epoch: 2025-12-14T07:03:19.179Z)
Latitude
-0.00011°
Longitude
175.77844°
Altitude
763.488 km
Speed
7.479 km/s
True Right ascension
00h 19m 16s
True Declination
0° 00' 00"
Sunlit
Object was in daylight at epoch
Visualization orbit readout
Latitude
Unknown
Longitude
Unknown
Altitude
Unknown
Speed
Unknown
Apparent Right ascension
Unknown
Apparent Declination
Unknown
Sunlit
N/A
Visualization observer readout
Local Sidereal Time
21:34:46
Azimuth
Unknown
Elevation
Unknown
Doppler factor
Unknown
Orbital elements
Apogee altitude
844.508 km
Perigee altitude
696.292 km
Semi-major axis
7,148.537 km
Eccentricity
0.01037
Inclination
98.6772°
RAAN
4.8173°
Arg. of periapsis
279.4047°
True anomaly
80.7139°
Mean anomaly
79.543°
Eccentric anomaly
80.12819°
Mean motion
3.59102 °/min
Orbital period
100.25 mins
BSTAR
0.0019357
Loading maneuver chart data...
Computing Atmospheric mass density...
Loading historical data...
Loading historical data...
Loading historical data...
Loading historical data...
Loading historical data...
Loading historical data...
Loading historical data...

Documentation

Showing up to 5 results
|